FW9914 Weather Reports


time (UTC)temp
C
wind
direction
speed
KPH
gust
KPH
rain 1hr
cm
rain 24hr
cm
rain mn
cm
humidity
%
barometer
mb
20260507220115 21 157 0.0 0.0 0.00 0.00 0.00 26 1010.6
20260507210143 22 157 0.0 0.0 0.00 0.00 0.00 27 1011.0
20260507190150 22 157 0.0 0.0 0.00 0.00 0.00 29 1011.0
20260507180118 21 157 0.0 0.0 0.00 0.00 0.00 34 1011.3
20260507170141 18 158 0.0 0.0 0.00 0.00 0.00 38 1011.4
20260507160129 17 157 0.0 0.0 0.00 0.00 0.00 43 1011.1
20260507150137 13 157 0.0 0.0 0.00 0.00 0.00 48 1011.3
20260507140134 11 158 0.0 0.0 0.00 0.00 0.00 57 1011.4
20260507130117 8 158 0.0 0.0 0.00 0.00 0.00 69 1010.4
20260507120116 5 157 0.0 0.0 0.00 0.00 0.00 78 1010.2
20260507110109 5 165 0.0 0.0 0.00 0.00 0.00 86 1010.0
20260507100145 5 165 0.0 0.0 0.00 0.00 0.00 85 1009.8
20260507090124 6 165 0.0 0.0 0.00 0.00 0.00 85 1009.6
20260507080152 8 165 0.0 0.0 0.00 0.00 0.00 80 1009.7
20260507070109 8 165 0.0 0.0 0.00 0.00 0.00 82 1009.4
20260507060058 8 165 0.0 0.0 0.00 0.00 0.00 81 1009.1
20260507050120 10 165 0.0 0.0 0.00 0.00 0.00 77 1009.1
20260507040149 11 165 0.0 0.0 0.00 0.00 0.00 71 1009.0
20260507030136 14 157 0.0 0.0 0.00 0.00 0.00 52 1008.8
20260507020147 16 157 0.0 0.0 0.00 0.00 0.00 44 1007.0
20260507010201 17 157 0.0 0.0 0.00 0.00 0.00 46 1007.0
20260507000114 17 157 0.0 0.0 0.00 0.00 0.00 34 1006.3
20260506230155 20 157 0.0 0.0 0.00 0.00 0.00 33 1006.5